SCP
0 0 0 0 0 0 0 0 0 0 0 0 0 0 0 0 0 0 0 0 0 0 0 0 0 0 0 0 0 0 0 0
0 0 0 0 0 0 0 0 0 0 0 0 0 0 0 0 0 0 0 0 0 0 0 0 0 0 0 0 0 0 0 0
0 0 0 0 0 0 0 0 0 0 0 0 0 0 0 0 0 0 0 0 0 0 0 0 0 0 0 0 0 0 0 0
0 0 0 0 0 0 0 0 0 0 0 0 0 0 0 0 0 0 0 0 0 0 0 0 0 0 0 0 0 0 0 0
0 0 0 0 0 0 0 0 0 0 0 0 0 0 0 0 0 0 0 0 0 0 0 0 0 0 0 0 0 0 0 0
0 0 0 0 0 0 0 0 0 0 0 0 0 0 0 0 0 0 0 0 0 0 0 0 0 0 0 0 0 0 0 0
0 0 0 0 0 0 0 0 0 0 0 0 0 0 0 0 0 0 0 0 0 0 0 0 0 0 0 0 0 0 0 0
0 0 0 0 0 0 0 0 0 0 0 0 0 0 0 0 0 0 0 0 0 0 0 0 0 0 0 0 0 0 0 0
0 0 0 0 0 0 0 0 0 0 0 0 0 0 0 0 0 0 0 0 0 0 0 0 0 0 0 0 0 0 0 0
0 0 0 0 0 0 0 0 0 0 0 0 0 0 0 0 0 0 0 0 0 0 0 0 0 0 0 0 0 0 0 0
0 0 0 0 0 0 0 0 0 0 0 0 0 0 0 0 0 0 0 0 0 0 0 0 0 0 0 0 0 0 0 0
0 0 0 0 0 0 0 0 0 0 0 0 0 0 0 0 0 0 0 0 0 0 0 0 0 0 0 0 0 0 0 0
0 0 0 0 0 0 0 0 0 0 0 0 0 0 0 0 0 0 0 0 0 0 0 0 0 0 0 0 0 0 0 0
0 0 0 0 0 0 0 0 0 0 0 0 0 0 0 0 0 0 0 0 0 0 0 0 0 0 0 0 0 0 0 0
0 0 0 0 0 0 0 0 0 0 0 0 0 0 0 0 0 0 0 0 0 0 0 0 0 0 0 0 0 0 0 0
0 0 0 0 0 0 0 0 0 0 0 0 0 0 0 0 0 0 0 0 0 0 0 0 0 0 0 0 0 0 0 0
0 0 0 0 0 0 0 0 0 0 0 0 0 0 0 0 0 0 0 0 0 0 0 0 0 0 0 0 0 0 0 0
0 0 0 0 -0 -0 0 0 0 0 0 0 0 0 0 0 0 0 0 0 0 0 0 0 0 0 0 0 0 0 0 0
0 0 0 0 -0 0 0 0 0 0 -0 0 0 0 0 0 0 0 0 0 0 0 0 0 0 0 0 0 0 0 0 0
0 -0 0 0 0 0 0 0 0 0 -0 -0 0 0 0 0 0 0 0 0 0 0 0 0 0 0 0 0 0 0 0 0
Wind_Speed_500mb
7 4 7 12 17 21 25 26 26 29 31 33 32 33 32 33 33 34 35 35 34 31 30 31 31 29 29 27 26 27 22 24
7 3 5 10 15 20 24 25 23 26 27 27 26 28 27 28 29 29 28 28 29 29 30 28 26 27 26 25 24 22 21 16
5 6 9 12 15 19 22 23 24 23 23 23 22 24 23 22 22 23 22 24 26 28 27 24 23 24 27 25 24 21 13 4
6 8 12 16 18 19 20 22 24 23 22 21 20 21 22 21 21 22 21 22 23 21 21 22 24 27 24 24 26 22 16 14
12 12 14 16 18 20 24 23 22 24 23 20 23 22 21 22 22 22 23 22 21 22 23 26 27 25 25 27 25 22 20 19
22 22 20 18 18 22 26 28 26 23 25 25 28 27 22 22 24 21 21 22 25 27 28 28 26 26 29 30 27 27 27 26
19 21 25 27 27 25 27 27 28 29 25 27 31 33 29 28 27 26 26 27 30 31 31 30 29 30 33 33 35 35 35 34
6 15 21 25 27 26 26 26 26 24 27 29 29 32 35 36 36 34 34 36 38 38 38 37 37 37 38 39 44 42 42 42
13 17 20 19 22 21 22 22 22 22 24 28 32 32 33 37 41 42 43 45 46 46 47 49 46 43 45 47 51 52 50 50
14 13 14 13 15 16 18 19 19 20 23 27 30 32 35 36 40 43 47 50 52 55 55 57 56 52 53 55 58 60 60 58
9 10 12 14 15 16 17 18 19 21 22 24 27 29 30 34 36 37 41 46 50 54 55 58 62 61 63 63 66 69 69 67
7 9 11 13 15 16 17 18 20 22 23 24 25 26 28 28 31 34 36 38 38 42 45 50 54 56 59 63 66 71 74 75
6 9 11 13 15 17 18 20 21 22 22 22 23 25 26 26 25 27 31 32 33 34 35 35 38 43 47 50 55 58 67 74
5 9 11 13 15 17 18 20 21 21 21 21 22 24 25 25 25 23 24 26 26 27 28 28 26 28 30 32 34 40 50 61
5 6 8 11 16 18 20 21 21 22 21 21 21 21 22 23 25 23 21 20 21 25 28 28 27 24 22 24 27 28 33 38
8 7 12 17 19 19 20 20 20 21 22 22 23 24 22 23 25 23 21 21 23 24 26 30 30 26 23 25 28 31 34 41
9 13 18 20 21 22 23 23 23 23 23 23 24 23 24 23 16 21 22 21 18 16 17 26 28 25 25 27 30 34 35 42
11 14 17 21 23 25 26 27 27 28 26 26 26 26 26 25 25 15 13 17 19 19 19 20 23 26 26 26 24 22 23 27
11 14 16 18 21 24 27 29 29 28 29 29 28 27 26 26 24 24 21 14 13 18 19 19 25 27 30 26 25 23 22 24
9 12 15 17 21 23 25 27 28 28 28 28 28 29 29 28 29 28 27 26 24 21 21 25 23 25 28 30 31 30 26 24
Wind_Direction_500mb
168 206 252 264 266 271 270 269 271 271 272 272 274 275 274 276 277 274 274 272 270 261 255 252 250 251 254 259 265 268 270 265
176 216 283 290 287 282 277 275 273 272 272 272 271 274 278 279 278 275 272 273 266 261 256 256 256 254 256 257 257 257 251 258
216 278 292 294 300 294 286 281 274 273 273 273 275 280 284 280 279 278 279 275 271 261 255 257 260 258 255 251 242 234 228 262
244 280 292 292 290 292 295 290 284 278 272 273 275 278 280 278 276 277 282 277 270 267 262 259 256 252 249 242 232 230 240 257
242 269 284 294 295 294 294 296 294 285 275 271 270 268 274 274 270 273 281 287 286 275 265 256 249 247 238 230 235 245 252 257
248 263 270 284 300 307 302 296 292 292 284 269 267 271 269 270 274 278 283 286 282 271 260 252 246 238 234 242 248 253 257 261
261 271 272 277 287 297 297 294 292 286 284 279 270 270 269 270 270 273 275 273 268 266 259 252 244 242 246 252 257 260 262 262
259 278 279 285 291 295 292 292 290 290 284 278 277 272 270 268 267 266 264 262 264 261 257 254 251 251 256 259 262 262 264 266
275 289 293 300 299 300 300 296 295 292 287 281 277 273 270 269 268 265 262 261 260 259 259 259 257 257 260 262 264 266 267 268
281 291 302 309 308 309 306 306 302 299 294 289 285 281 278 273 269 268 267 264 263 262 261 261 261 260 260 261 263 266 268 268
298 316 326 328 324 320 315 314 316 312 307 300 296 294 289 286 283 278 273 271 268 267 266 265 265 263 261 260 263 265 267 268
317 332 331 329 329 327 327 329 332 328 324 318 311 305 301 300 296 291 287 284 281 278 275 272 271 269 266 263 263 265 267 268
335 336 333 333 334 335 336 341 340 337 333 329 323 318 314 310 306 301 297 293 291 288 285 283 280 276 273 269 266 265 266 268
358 342 335 335 339 340 343 345 347 343 341 337 333 327 323 319 315 312 305 301 300 298 297 295 290 285 280 279 278 273 269 270
40 8 347 349 352 349 351 352 350 348 345 345 343 339 334 329 325 323 317 313 309 310 311 309 304 304 302 294 288 289 286 286
70 36 20 11 3 357 352 351 347 344 342 343 342 341 344 343 336 337 331 323 322 321 319 319 317 322 316 298 297 293 290 295
50 26 18 12 7 0 353 350 347 345 343 342 342 343 344 345 353 337 338 336 328 312 299 297 302 308 312 307 294 280 277 281
30 19 9 5 5 3 356 352 351 351 349 344 342 341 340 340 342 352 347 337 333 333 331 330 337 335 332 333 339 327 304 290
20 11 3 356 356 357 357 355 354 350 349 345 341 339 338 338 338 339 346 350 342 333 334 334 331 331 331 336 340 335 325 317
7 360 356 350 343 347 348 349 349 347 344 340 335 333 331 329 326 325 324 324 325 322 318 316 316 318 321 323 322 322 321 316
Wind_Speed_850mb
7 4 7 12 17 21 25 26 26 29 31 33 32 33 32 33 33 34 35 35 34 31 30 31 31 29 29 27 26 27 22 24
7 3 5 10 15 20 24 25 23 26 27 27 26 28 27 28 29 29 28 28 29 29 30 28 26 27 26 25 24 22 21 16
5 6 9 12 15 19 22 23 24 23 23 23 22 24 23 22 22 23 22 24 26 28 27 24 23 24 27 25 24 21 13 4
6 8 12 16 18 19 20 22 24 23 22 21 20 21 22 21 21 22 21 22 23 21 21 22 24 27 24 24 26 22 16 14
12 12 14 16 18 20 24 23 22 24 23 20 23 22 21 22 22 22 23 22 21 22 23 26 27 25 25 27 25 22 20 19
22 22 20 18 18 22 26 28 26 23 25 25 28 27 22 22 24 21 21 22 25 27 28 28 26 26 29 30 27 27 27 26
19 21 25 27 27 25 27 27 28 29 25 27 31 33 29 28 27 26 26 27 30 31 31 30 29 30 33 33 35 35 35 34
6 15 21 25 27 26 26 26 26 24 27 29 29 32 35 36 36 34 34 36 38 38 38 37 37 37 38 39 44 42 42 42
13 17 20 19 22 21 22 22 22 22 24 28 32 32 33 37 41 42 43 45 46 46 47 49 46 43 45 47 51 52 50 50
14 13 14 13 15 16 18 19 19 20 23 27 30 32 35 36 40 43 47 50 52 55 55 57 56 52 53 55 58 60 60 58
9 10 12 14 15 16 17 18 19 21 22 24 27 29 30 34 36 37 41 46 50 54 55 58 62 61 63 63 66 69 69 67
7 9 11 13 15 16 17 18 20 22 23 24 25 26 28 28 31 34 36 38 38 42 45 50 54 56 59 63 66 71 74 75
6 9 11 13 15 17 18 20 21 22 22 22 23 25 26 26 25 27 31 32 33 34 35 35 38 43 47 50 55 58 67 74
5 9 11 13 15 17 18 20 21 21 21 21 22 24 25 25 25 23 24 26 26 27 28 28 26 28 30 32 34 40 50 61
5 6 8 11 16 18 20 21 21 22 21 21 21 21 22 23 25 23 21 20 21 25 28 28 27 24 22 24 27 28 33 38
8 7 12 17 19 19 20 20 20 21 22 22 23 24 22 23 25 23 21 21 23 24 26 30 30 26 23 25 28 31 34 41
9 13 18 20 21 22 23 23 23 23 23 23 24 23 24 23 16 21 22 21 18 16 17 26 28 25 25 27 30 34 35 42
11 14 17 21 23 25 26 27 27 28 26 26 26 26 26 25 25 15 13 17 19 19 19 20 23 26 26 26 24 22 23 27
11 14 16 18 21 24 27 29 29 28 29 29 28 27 26 26 24 24 21 14 13 18 19 19 25 27 30 26 25 23 22 24
9 12 15 17 21 23 25 27 28 28 28 28 28 29 29 28 29 28 27 26 24 21 21 25 23 25 28 30 31 30 26 24
Wind_Direction_850mb
168 206 252 264 266 271 270 269 271 271 272 272 274 275 274 276 277 274 274 272 270 261 255 252 250 251 254 259 265 268 270 265
176 216 283 290 287 282 277 275 273 272 272 272 271 274 278 279 278 275 272 273 266 261 256 256 256 254 256 257 257 257 251 258
216 278 292 294 300 294 286 281 274 273 273 273 275 280 284 280 279 278 279 275 271 261 255 257 260 258 255 251 242 234 228 262
244 280 292 292 290 292 295 290 284 278 272 273 275 278 280 278 276 277 282 277 270 267 262 259 256 252 249 242 232 230 240 257
242 269 284 294 295 294 294 296 294 285 275 271 270 268 274 274 270 273 281 287 286 275 265 256 249 247 238 230 235 245 252 257
248 263 270 284 300 307 302 296 292 292 284 269 267 271 269 270 274 278 283 286 282 271 260 252 246 238 234 242 248 253 257 261
261 271 272 277 287 297 297 294 292 286 284 279 270 270 269 270 270 273 275 273 268 266 259 252 244 242 246 252 257 260 262 262
259 278 279 285 291 295 292 292 290 290 284 278 277 272 270 268 267 266 264 262 264 261 257 254 251 251 256 259 262 262 264 266
275 289 293 300 299 300 300 296 295 292 287 281 277 273 270 269 268 265 262 261 260 259 259 259 257 257 260 262 264 266 267 268
281 291 302 309 308 309 306 306 302 299 294 289 285 281 278 273 269 268 267 264 263 262 261 261 261 260 260 261 263 266 268 268
298 316 326 328 324 320 315 314 316 312 307 300 296 294 289 286 283 278 273 271 268 267 266 265 265 263 261 260 263 265 267 268
317 332 331 329 329 327 327 329 332 328 324 318 311 305 301 300 296 291 287 284 281 278 275 272 271 269 266 263 263 265 267 268
335 336 333 333 334 335 336 341 340 337 333 329 323 318 314 310 306 301 297 293 291 288 285 283 280 276 273 269 266 265 266 268
358 342 335 335 339 340 343 345 347 343 341 337 333 327 323 319 315 312 305 301 300 298 297 295 290 285 280 279 278 273 269 270
40 8 347 349 352 349 351 352 350 348 345 345 343 339 334 329 325 323 317 313 309 310 311 309 304 304 302 294 288 289 286 286
70 36 20 11 3 357 352 351 347 344 342 343 342 341 344 343 336 337 331 323 322 321 319 319 317 322 316 298 297 293 290 295
50 26 18 12 7 0 353 350 347 345 343 342 342 343 344 345 353 337 338 336 328 312 299 297 302 308 312 307 294 280 277 281
30 19 9 5 5 3 356 352 351 351 349 344 342 341 340 340 342 352 347 337 333 333 331 330 337 335 332 333 339 327 304 290
20 11 3 356 356 357 357 355 354 350 349 345 341 339 338 338 338 339 346 350 342 333 334 334 331 331 331 336 340 335 325 317
7 360 356 350 343 347 348 349 349 347 344 340 335 333 331 329 326 325 324 324 325 322 318 316 316 318 321 323 322 322 321 316